Great Bend, NY

2:38 AM EST on February 23, 2017 (GMT -0500)
Wheeler-Sack Army Air Field

Weather History for KGTB - May, 2013

Change the Weather History Date:

Monday, May 20, 2013

  Actual Average Record
Temperature  
Mean Temperature 66 °F -  
Max Temperature 77 °F 63 °F 86 °F (2012)
Min Temperature 56 °F 43 °F 35 °F (2002)
Cooling Degree Days 2    
Growing Degree Days 16 (Base 50)    
Moisture  
Dew Point 62 °F    
Average Humidity 83    
Maximum Humidity 100    
Minimum Humidity 65    
Precipitation  
Precipitation 0.00 in - - ()
Sea Level Pressure  
Sea Level Pressure 29.98 in    
Wind  
Wind Speed 6 mph (SSE)    
Max Wind Speed 9 mph    
Max Gust Speed -    
Visibility 10 miles    
Events Rain    
Averages and records for this station are not official NWS values.
T = Trace of Precipitation, MM = Missing Value Source: NWS Daily Summary

Daily Weather History Graph

Daily Weather History Graph

Search for Another Location

Airport or City:

Trip Planner

Search our weather history database for the weather conditions in past years. The results will help you decide how hot, cold, wet, or windy it might be!

Date:

Astronomy

May. 20, 2013 Rise Set
Actual Time 5:31 AM EDT 8:28 PM EDT
Civil Twilight 4:57 AM EDT 9:02 PM EDT
Nautical Twilight 4:13 AM EDT 9:45 PM EDT
Astronomical Twilight 3:22 AM EDT 10:37 PM EDT
Moon 3:23 PM EDT (5/20) 2:35 AM EDT (5/20)
Length of Visible Light 16h 04m
Length of Day
14h 56m
Waxing Gibbous, 75% of the Moon is Illuminated
May 20
Waxing Gibbous
May 25
Full
May 31
Last Quarter
Jun 8
New
Jun 16
First Quarter

Hourly Weather History & Observations

Time (EDT) Temp. Dew Point Humidity Pressure Visibility Wind Dir Wind Speed Gust Speed Precip Events Conditions
12:58 AM 58.1 °F 57.2 °F 97% 30.04 in 10.0 mi SSE 5.8 mph - N/A   Clear
1:58 AM 58.6 °F 57.7 °F 97% 30.03 in 10.0 mi South 6.9 mph - N/A   Clear
2:58 AM 59.2 °F 58.3 °F 97% 30.00 in 10.0 mi South 9.2 mph - N/A   Scattered Clouds
3:58 AM 56.1 °F 56.1 °F 100% 30.00 in 10.0 mi South 6.9 mph - N/A   Clear
4:58 AM 57.7 °F 57.7 °F 100% 30.00 in 10.0 mi SSE 8.1 mph - N/A   Overcast
5:58 AM 57.2 °F 57.2 °F 100% 30.01 in 10.0 mi South 6.9 mph - N/A   Clear
6:58 AM 61.3 °F 61.0 °F 99% 30.02 in 10.0 mi SSW 8.1 mph - N/A   Partly Cloudy
7:58 AM 64.0 °F 60.6 °F 89% 30.04 in 10.0 mi Variable 5.8 mph - N/A   Partly Cloudy
8:28 AM 64.4 °F 60.8 °F 88% 30.05 in 10.0 mi Variable 5.8 mph - N/A   Overcast
8:29 AM 64.4 °F 60.8 °F 88% 30.05 in 10.0 mi West 6.9 mph - N/A   Light Drizzle
8:40 AM 64.4 °F 60.8 °F 88% 30.05 in 10.0 mi Variable 6.9 mph - N/A   Overcast
8:58 AM 64.4 °F 60.8 °F 88% 30.05 in 10.0 mi WSW 8.1 mph - 0.00 in   Mostly Cloudy
9:58 AM 68.2 °F 61.5 °F 79% 30.04 in 10.0 mi WSW 9.2 mph - N/A   Scattered Clouds
10:18 AM 68.0 °F 60.8 °F 78% 30.03 in 9.0 mi Variable 5.8 mph - N/A   Mostly Cloudy
10:58 AM 68.5 °F 61.3 °F 78% 30.03 in 10.0 mi Variable 5.8 mph - N/A   Overcast
11:13 AM 69.8 °F 62.6 °F 78% 30.03 in 10.0 mi Variable 6.9 mph - N/A   Mostly Cloudy
11:43 AM 71.6 °F 62.6 °F 73% 30.02 in 4.0 mi West 4.6 mph - N/A   Haze
11:48 AM 71.6 °F 62.6 °F 73% 30.01 in 4.0 mi NW 6.9 mph - N/A   Haze
11:53 AM 71.6 °F 62.6 °F 73% 30.02 in 10.0 mi Variable 4.6 mph - N/A   Scattered Clouds
11:58 AM 70.5 °F 61.9 °F 74% 30.02 in 10.0 mi Variable 5.8 mph - N/A   Mostly Cloudy
12:39 PM 71.6 °F 62.6 °F 73% 30.01 in 10.0 mi Variable 1.2 mph - N/A   Light Drizzle
12:40 PM 71.6 °F 62.6 °F 73% 30.01 in 10.0 mi Variable 2.3 mph - N/A   Overcast
12:58 PM 72.7 °F 62.8 °F 71% 30.01 in 10.0 mi SW 4.6 mph - 0.00 in   Overcast
1:18 PM 71.6 °F 62.6 °F 73% 30.00 in 10.0 mi Variable 2.3 mph - N/A   Scattered Clouds
1:58 PM 74.5 °F 63.0 °F 67% 29.99 in 10.0 mi SW 2.3 mph - N/A   Clear
2:58 PM 75.6 °F 63.9 °F 67% 29.98 in 10.0 mi North 4.6 mph - N/A   Scattered Clouds
3:03 PM 75.2 °F 64.4 °F 69% 29.99 in 10.0 mi NNE 3.5 mph - N/A   Mostly Cloudy
3:43 PM 75.2 °F 64.4 °F 69% 29.98 in 10.0 mi Variable 5.8 mph - N/A   Scattered Clouds
3:48 PM 75.2 °F 64.4 °F 69% 29.98 in 10.0 mi North 5.8 mph - N/A   Scattered Clouds
3:58 PM 75.2 °F 64.0 °F 68% 29.97 in 10.0 mi Variable 3.5 mph - N/A   Mostly Cloudy
4:43 PM 77.0 °F 64.4 °F 65% 29.97 in 10.0 mi WNW 4.6 mph - N/A   Mostly Cloudy
4:53 PM 77.0 °F 64.4 °F 65% 29.97 in 10.0 mi Variable 3.5 mph - N/A   Scattered Clouds
4:58 PM 77.0 °F 64.4 °F 65% 29.97 in 10.0 mi NW 4.6 mph - N/A   Mostly Cloudy
5:08 PM 75.2 °F 64.4 °F 69% 29.96 in 10.0 mi North 2.3 mph - N/A   Scattered Clouds
5:58 PM 75.4 °F 64.9 °F 70% 29.95 in 10.0 mi NNE 5.8 mph - N/A   Partly Cloudy
6:58 PM 74.5 °F 64.2 °F 70% 29.94 in 10.0 mi NE 8.1 mph - N/A   Clear
7:58 PM 71.6 °F 63.9 °F 76% 29.94 in 10.0 mi NE 9.2 mph - N/A   Clear
8:58 PM 67.3 °F 63.3 °F 87% 29.94 in 10.0 mi ENE 6.9 mph - N/A   Clear
9:47 PM 66.2 °F 62.6 °F 88% 29.95 in 10.0 mi ESE 5.8 mph - N/A Rain Light Rain
9:57 PM 66.2 °F 62.6 °F 88% 29.95 in 10.0 mi SE 4.6 mph - N/A   Clear
9:58 PM 66.2 °F 62.6 °F 88% 29.95 in 10.0 mi SE 4.6 mph - 0.00 in   Clear
10:00 PM 66.2 °F 62.6 °F 88% 29.95 in 10.0 mi SE 4.6 mph - N/A Rain Light Rain
10:06 PM 66.2 °F 62.6 °F 88% 29.95 in 10.0 mi SE 4.6 mph - N/A   Clear
10:08 PM 66.2 °F 62.6 °F 88% 29.95 in 10.0 mi SE 5.8 mph - N/A Rain Light Rain
10:10 PM 66.2 °F 62.6 °F 88% 29.94 in 10.0 mi SE 5.8 mph - N/A   Clear
10:13 PM 66.2 °F 62.6 °F 88% 29.94 in 10.0 mi SE 5.8 mph - N/A Rain Light Rain
10:18 PM 66.2 °F 64.4 °F 94% 29.94 in 10.0 mi SE 5.8 mph - N/A   Clear
10:21 PM 66.2 °F 64.4 °F 94% 29.94 in 10.0 mi SE 6.9 mph - N/A Rain Light Rain
10:23 PM 66.2 °F 64.4 °F 94% 29.94 in 10.0 mi SE 6.9 mph - N/A   Clear
10:58 PM 64.9 °F 64.0 °F 97% 29.93 in 10.0 mi SE 6.9 mph - 0.00 in   Clear
11:12 PM 64.4 °F 64.4 °F 100% 29.92 in 10.0 mi SE 6.9 mph - N/A Rain Light Rain
11:17 PM 64.4 °F 64.4 °F 100% 29.92 in 10.0 mi SE 8.1 mph - N/A   Scattered Clouds
11:58 PM 65.8 °F 64.4 °F 95% 29.90 in 10.0 mi SSE 9.2 mph - 0.00 in   Scattered Clouds